| time (UTC) | temp C | wind direction | speed KPH | gust KPH | rain 1hr cm | rain 24hr cm | rain mn cm | humidity % | barometer mb |
| 20260507074607 | 16 | 244 | 3.2 | 9.7 | 0.00 | 0.99 | 0.00 | 87 | 1014.6 |
| 20260507073102 | 15 | 155 | 1.6 | 11.3 | 0.00 | 0.99 | 0.00 | 89 | 1014.6 |
| 20260507071555 | 15 | 209 | 4.8 | 11.3 | 0.00 | 0.99 | 0.00 | 88 | 1014.6 |
| 20260507070107 | 15 | 245 | 4.8 | 6.4 | 0.00 | 0.99 | 0.00 | 90 | 1014.5 |
| 20260507064610 | 15 | 259 | 1.6 | 6.4 | 0.00 | 0.99 | 0.00 | 91 | 1014.3 |
| 20260507063059 | 15 | 192 | 4.8 | 9.7 | 0.00 | 0.97 | 0.00 | 91 | 1014.2 |
| 20260507061602 | 15 | 239 | 3.2 | 6.4 | 0.00 | 0.97 | 0.00 | 93 | 1014.1 |
| 20260507060057 | 14 | 208 | 1.6 | 6.4 | 0.00 | 0.97 | 0.00 | 93 | 1014.0 |
| 20260507054558 | 14 | 221 | 3.2 | 4.8 | 0.00 | 0.97 | 0.00 | 94 | 1013.9 |
| 20260507053057 | 15 | 0 | 1.6 | 4.8 | 0.00 | 0.97 | 0.00 | 94 | 1013.7 |
| 20260507051601 | 14 | 198 | 3.2 | 4.8 | 0.00 | 0.97 | 0.00 | 94 | 1013.7 |
| 20260507044559 | 13 | 0 | 0.0 | 4.8 | 0.00 | 0.97 | 0.00 | 94 | 1013.4 |
| 20260507043057 | 13 | 0 | 0.0 | 0.0 | 0.00 | 0.97 | 0.00 | 94 | 1013.2 |
| 20260507041558 | 13 | 0 | 0.0 | 0.0 | 0.00 | 0.97 | 0.00 | 93 | 1013.0 |
| 20260507040110 | 13 | 0 | 0.0 | 0.0 | 0.00 | 0.97 | 0.00 | 93 | 1013.0 |
| 20260507034559 | 13 | 0 | 0.0 | 0.0 | 0.00 | 0.97 | 0.00 | 94 | 1012.9 |
| 20260507033102 | 13 | 0 | 0.0 | 0.0 | 0.00 | 0.97 | 0.00 | 94 | 1012.7 |
| 20260507031618 | 13 | 0 | 0.0 | 0.0 | 0.00 | 0.97 | 0.00 | 94 | 1012.7 |
| 20260507030053 | 13 | 0 | 0.0 | 0.0 | 0.00 | 0.97 | 0.00 | 93 | 1012.5 |
| 20260507024556 | 13 | 0 | 0.0 | 0.0 | 0.00 | 0.97 | 0.00 | 93 | 1012.7 |
| 20260507023053 | 13 | 0 | 0.0 | 0.0 | 0.00 | 0.97 | 0.00 | 93 | 1012.6 |
| 20260507021554 | 13 | 0 | 0.0 | 0.0 | 0.00 | 0.97 | 0.00 | 93 | 1012.6 |
| 20260507020059 | 14 | 0 | 0.0 | 0.0 | 0.00 | 0.97 | 0.00 | 93 | 1012.4 |
| 20260507014603 | 14 | 0 | 0.0 | 0.0 | 0.00 | 0.97 | 0.00 | 93 | 1012.4 |
| 20260507013114 | 14 | 0 | 0.0 | 0.0 | 0.00 | 0.97 | 0.00 | 93 | 1012.3 |
| 20260507011553 | 15 | 0 | 0.0 | 0.0 | 0.00 | 0.97 | 0.00 | 93 | 1012.4 |
| 20260507010104 | 15 | 0 | 0.0 | 0.0 | 0.00 | 0.97 | 0.00 | 93 | 1012.3 |
| 20260507004554 | 14 | 0 | 0.0 | 0.0 | 0.00 | 0.97 | 0.00 | 93 | 1012.2 |
| 20260507003056 | 14 | 0 | 0.0 | 0.0 | 0.00 | 0.97 | 0.00 | 93 | 1012.2 |
| 20260507001556 | 15 | 0 | 0.0 | 0.0 | 0.00 | 0.97 | 0.00 | 93 | 1012.1 |
| 20260507000054 | 15 | 0 | 0.0 | 0.0 | 0.00 | 0.97 | 0.00 | 92 | 1012.2 |
| 20260506234554 | 15 | 0 | 0.0 | 0.0 | 0.00 | 0.97 | 0.00 | 92 | 1012.3 |
| 20260506233106 | 15 | 0 | 0.0 | 1.6 | 0.00 | 0.97 | 0.00 | 92 | 1012.4 |
| 20260506231600 | 15 | 0 | 0.0 | 1.6 | 0.00 | 0.97 | 0.00 | 92 | 1012.2 |
| 20260506230105 | 15 | 325 | 0.0 | 1.6 | 0.00 | 0.97 | 0.00 | 92 | 1012.0 |
| 20260506224552 | 15 | 0 | 0.0 | 1.6 | 0.00 | 0.97 | 0.00 | 92 | 1012.1 |
| 20260506223056 | 15 | 0 | 0.0 | 1.6 | 0.00 | 0.97 | 0.00 | 92 | 1012.1 |
| 20260506221558 | 15 | 0 | 0.0 | 1.6 | 0.00 | 0.97 | 0.00 | 92 | 1012.2 |
| 20260506220059 | 15 | 0 | 3.2 | 9.7 | 0.00 | 0.97 | 0.00 | 91 | 1012.3 |
| 20260506214601 | 15 | 332 | 0.0 | 4.8 | 0.03 | 0.97 | 0.97 | 91 | 1012.3 |
| 20260506213055 | 15 | 0 | 0.0 | 0.0 | 0.13 | 0.97 | 0.97 | 91 | 1012.3 |
| 20260506211607 | 15 | 335 | 0.0 | 6.4 | 0.18 | 0.97 | 0.97 | 91 | 1012.3 |
| 20260506210058 | 15 | 335 | 3.2 | 11.3 | 0.18 | 0.97 | 0.97 | 90 | 1012.7 |
| 20260506204556 | 15 | 322 | 4.8 | 8.0 | 0.23 | 0.94 | 0.94 | 89 | 1013.0 |
| 20260506203057 | 15 | 309 | 4.8 | 8.0 | 0.28 | 0.84 | 0.84 | 91 | 1013.0 |
| 20260506201553 | 16 | 316 | 1.6 | 4.8 | 0.38 | 0.79 | 0.79 | 91 | 1012.7 |
| 20260506200056 | 16 | 314 | 0.0 | 3.2 | 0.53 | 0.76 | 0.76 | 91 | 1012.7 |
| 20260506194601 | 16 | 328 | 0.0 | 20.9 | 0.46 | 0.69 | 0.69 | 90 | 1012.9 |
| 20260506193055 | 16 | 231 | 12.9 | 22.5 | 0.28 | 0.53 | 0.53 | 88 | 1013.0 |
| 20260506191555 | 17 | 293 | 3.2 | 6.4 | 0.15 | 0.38 | 0.38 | 83 | 1012.3 |
| 20260506190056 | 17 | 252 | 3.2 | 9.7 | 0.00 | 0.23 | 0.23 | 84 | 1011.9 |
| 20260506184622 | 16 | 0 | 6.4 | 12.9 | 0.00 | 0.23 | 0.23 | 86 | 1011.0 |
| 20260506183056 | 16 | 323 | 3.2 | 17.7 | 0.00 | 0.23 | 0.23 | 87 | 1010.9 |
| 20260506181553 | 16 | 321 | 8.0 | 12.9 | 0.00 | 0.23 | 0.23 | 88 | 1010.6 |
| 20260506180055 | 16 | 305 | 6.4 | 14.5 | 0.13 | 0.23 | 0.23 | 88 | 1010.6 |
| 20260506174552 | 16 | 314 | 8.0 | 12.9 | 0.20 | 0.23 | 0.23 | 89 | 1010.2 |
| 20260506173108 | 16 | 351 | 3.2 | 6.4 | 0.23 | 0.23 | 0.23 | 87 | 1010.3 |
| 20260506171558 | 16 | 354 | 0.0 | 17.7 | 0.20 | 0.20 | 0.20 | 84 | 1011.0 |
| 20260506164611 | 19 | 301 | 17.7 | 33.8 | 0.00 | 0.00 | 0.00 | 73 | 1010.8 |
| 20260506163105 | 21 | 291 | 12.9 | 22.5 | 0.00 | 0.00 | 0.00 | 62 | 1010.2 |
| 20260506161557 | 23 | 310 | 0.0 | 3.2 | 0.00 | 0.00 | 0.00 | 54 | 1009.7 |
| 20260506160110 | 25 | 334 | 1.6 | 3.2 | 0.00 | 0.00 | 0.00 | 52 | 1009.7 |
| 20260506154558 | 25 | 0 | 0.0 | 4.8 | 0.00 | 0.00 | 0.00 | 49 | 1009.7 |
| 20260506153055 | 25 | 321 | 0.0 | 9.7 | 0.00 | 0.00 | 0.00 | 48 | 1009.9 |
| 20260506151555 | 25 | 222 | 4.8 | 11.3 | 0.00 | 0.00 | 0.00 | 46 | 1010.0 |
| 20260506150057 | 26 | 262 | 1.6 | 8.0 | 0.00 | 0.00 | 0.00 | 47 | 1010.1 |
| 20260506144616 | 26 | 138 | 8.0 | 14.5 | 0.00 | 0.00 | 0.00 | 47 | 1010.1 |
| 20260506143052 | 26 | 253 | 3.2 | 11.3 | 0.00 | 0.00 | 0.00 | 45 | 1010.2 |
| 20260506141610 | 26 | 170 | 9.7 | 24.1 | 0.00 | 0.00 | 0.00 | 46 | 1010.4 |
| 20260506140054 | 26 | 199 | 6.4 | 12.9 | 0.00 | 0.00 | 0.00 | 45 | 1010.4 |
| 20260506134601 | 26 | 253 | 8.0 | 14.5 | 0.00 | 0.00 | 0.00 | 46 | 1010.5 |
| 20260506133104 | 26 | 192 | 3.2 | 11.3 | 0.00 | 0.00 | 0.00 | 46 | 1010.8 |
| 20260506131557 | 25 | 191 | 8.0 | 17.7 | 0.00 | 0.00 | 0.00 | 47 | 1010.9 |
| 20260506130058 | 25 | 221 | 3.2 | 19.3 | 0.00 | 0.00 | 0.00 | 47 | 1011.1 |
| 20260506124554 | 26 | 203 | 6.4 | 16.1 | 0.00 | 0.00 | 0.00 | 45 | 1011.3 |
| 20260506123059 | 26 | 255 | 9.7 | 19.3 | 0.00 | 0.00 | 0.00 | 46 | 1011.3 |
| 20260506121614 | 26 | 252 | 4.8 | 16.1 | 0.00 | 0.00 | 0.00 | 47 | 1011.6 |
| 20260506120125 | 25 | 204 | 9.7 | 20.9 | 0.00 | 0.00 | 0.00 | 47 | 1011.8 |
| 20260506114559 | 25 | 264 | 6.4 | 16.1 | 0.00 | 0.00 | 0.00 | 49 | 1011.8 |
| 20260506113103 | 24 | 283 | 4.8 | 19.3 | 0.00 | 0.00 | 0.00 | 50 | 1012.0 |
| 20260506111555 | 25 | 190 | 9.7 | 19.3 | 0.00 | 0.00 | 0.00 | 49 | 1012.2 |
| 20260506110056 | 25 | 217 | 6.4 | 16.1 | 0.00 | 0.00 | 0.00 | 50 | 1012.3 |
| 20260506104555 | 24 | 193 | 12.9 | 20.9 | 0.00 | 0.00 | 0.00 | 49 | 1012.4 |
| 20260506103055 | 23 | 293 | 9.7 | 25.7 | 0.00 | 0.00 | 0.00 | 51 | 1012.5 |
| 20260506101556 | 23 | 191 | 9.7 | 24.1 | 0.00 | 0.00 | 0.00 | 52 | 1012.5 |
| 20260506100056 | 23 | 278 | 6.4 | 24.1 | 0.00 | 0.00 | 0.00 | 53 | 1012.7 |
| 20260506094554 | 23 | 221 | 9.7 | 22.5 | 0.00 | 0.00 | 0.00 | 52 | 1012.8 |
| 20260506093057 | 23 | 236 | 6.4 | 27.4 | 0.00 | 0.00 | 0.00 | 52 | 1012.8 |
| 20260506091556 | 22 | 250 | 8.0 | 25.7 | 0.00 | 0.00 | 0.00 | 53 | 1012.9 |
| 20260506090052 | 22 | 247 | 6.4 | 20.9 | 0.00 | 0.00 | 0.00 | 54 | 1012.9 |
| 20260506084555 | 22 | 282 | 8.0 | 19.3 | 0.00 | 0.00 | 0.00 | 54 | 1012.9 |
| 20260506083053 | 22 | 240 | 8.0 | 17.7 | 0.00 | 0.00 | 0.00 | 54 | 1013.0 |
| 20260506081554 | 21 | 221 | 9.7 | 20.9 | 0.00 | 0.00 | 0.00 | 54 | 1013.0 |